SAS2964 LIRQ-EKCH

Flight info

Callsign SAS2964
Flight time 1h 57m
Altitude 38000
Route OKMAP Q125 OMAKU DCT BOA DCT BRENO M726 LASTO M852 HLZ Z990 IRKIS DCT MEGAR P605 GESKA Z711 MONAK
Aircraft A20N/M-SDE2E3FGHIRWXY/LB1

Departure

Time 2026-04-25 16:33
Airport Florence Airport, Peretola (LIRQ)

Arrival

Time 2026-04-25 18:30
Airport Copenhagen Kastrup Airport (EKCH)
Time Latitude Longitude Altitude Speed Heading
2026-04-25 15:47 43.80384 11.20098 147 ft 0 kts 94°
2026-04-25 16:16 43.80384 11.20090 146 ft 2 kts 94°
2026-04-25 16:16 43.80386 11.20070 146 ft 2 kts 94°
2026-04-25 16:16 43.80386 11.20056 146 ft 2 kts 88°
2026-04-25 16:16 43.80380 11.20038 146 ft 2 kts 42°
2026-04-25 16:17 43.80370 11.20029 147 ft 0 kts 12°
2026-04-25 16:17 43.80371 11.20030 147 ft 2 kts 13°
2026-04-25 16:17 43.80390 11.20035 146 ft 0 kts
2026-04-25 16:17 43.80394 11.20036 146 ft 0 kts
2026-04-25 16:21 43.80405 11.20037 146 ft 3 kts
2026-04-25 16:21 43.80417 11.20039 146 ft 0 kts
2026-04-25 16:26 43.80421 11.20040 146 ft 2 kts
2026-04-25 16:27 43.80462 11.20045 145 ft 8 kts 357°
2026-04-25 16:27 43.80513 11.20004 145 ft 9 kts 323°
2026-04-25 16:27 43.80600 11.20006 145 ft 19 kts 14°
2026-04-25 16:27 43.80740 11.20098 145 ft 23 kts 47°
2026-04-25 16:28 43.80849 11.20263 145 ft 23 kts 48°
2026-04-25 16:28 43.80954 11.20426 145 ft 22 kts 48°
2026-04-25 16:28 43.81057 11.20587 147 ft 21 kts 47°
2026-04-25 16:28 43.81155 11.20738 149 ft 21 kts 47°
2026-04-25 16:29 43.81253 11.20896 150 ft 21 kts 59°
2026-04-25 16:29 43.81262 11.21085 151 ft 19 kts 94°
2026-04-25 16:29 43.81288 11.21263 151 ft 19 kts 50°
2026-04-25 16:29 43.81382 11.21382 153 ft 10 kts
2026-04-25 16:30 43.81392 11.21383 153 ft 0 kts 357°
2026-04-25 16:30 43.81425 11.21373 153 ft 9 kts 342°
2026-04-25 16:31 43.81492 11.21339 152 ft 11 kts 335°
2026-04-25 16:31 43.81492 11.21260 153 ft 5 kts 228°
2026-04-25 16:31 43.81490 11.21257 153 ft 0 kts 228°
2026-04-25 16:32 43.81429 11.21162 152 ft 45 kts 227°
2026-04-25 16:33 43.81032 11.20548 147 ft 123 kts 227°
2026-04-25 16:33 43.80344 11.19486 381 ft 162 kts 229°
2026-04-25 16:33 43.79616 11.18376 1233 ft 158 kts 234°
2026-04-25 16:33 43.79279 11.16972 2018 ft 162 kts 272°
2026-04-25 16:34 43.79651 11.15465 2514 ft 181 kts 299°
2026-04-25 16:34 43.80325 11.13880 2988 ft 197 kts 289°
2026-04-25 16:34 43.80584 11.11997 3466 ft 211 kts 276°
2026-04-25 16:34 43.80746 11.09953 4202 ft 213 kts 275°
2026-04-25 16:35 43.80880 11.07950 4931 ft 214 kts 275°
2026-04-25 16:35 43.81021 11.05878 5472 ft 223 kts 276°
2026-04-25 16:35 43.81192 11.03726 6079 ft 229 kts 279°
2026-04-25 16:35 43.81796 11.01676 6621 ft 239 kts 309°
2026-04-25 16:36 43.83115 11.00362 7361 ft 240 kts 342°
2026-04-25 16:36 43.84214 11.00137 7894 ft 240 kts
2026-04-25 16:36 43.86214 11.01368 8782 ft 246 kts 47°
2026-04-25 16:36 43.87094 11.03362 9425 ft 249 kts 68°
2026-04-25 16:37 43.87701 11.05624 10069 ft 253 kts 70°
2026-04-25 16:37 43.88328 11.07913 10694 ft 256 kts 68°
2026-04-25 16:37 43.89015 11.10174 11296 ft 258 kts 66°
2026-04-25 16:37 43.89761 11.12445 11887 ft 262 kts 63°
2026-04-25 16:38 43.90807 11.14551 12305 ft 274 kts 44°
2026-04-25 16:38 43.92275 11.16336 12647 ft 290 kts 38°
2026-04-25 16:38 43.93878 11.18139 12994 ft 307 kts 38°
2026-04-25 16:38 43.95548 11.20087 13350 ft 325 kts 40°
2026-04-25 16:39 43.97306 11.22225 13684 ft 343 kts 41°
2026-04-25 16:39 43.99110 11.24481 14157 ft 353 kts 41°
2026-04-25 16:39 44.00927 11.26780 14807 ft 358 kts 41°
2026-04-25 16:39 44.02760 11.29102 15463 ft 361 kts 40°
2026-04-25 16:40 44.04739 11.31260 16090 ft 365 kts 33°
2026-04-25 16:40 44.06884 11.33114 16696 ft 368 kts 27°
2026-04-25 16:40 44.09177 11.34787 17342 ft 372 kts 25°
2026-04-25 16:40 44.11492 11.36416 17957 ft 377 kts 25°
2026-04-25 16:41 44.13949 11.37740 18536 ft 379 kts 11°
2026-04-25 16:41 44.15665 11.38110 18925 ft 379 kts
2026-04-25 16:41 44.21772 11.37048 20291 ft 383 kts 346°
2026-04-25 16:42 44.24368 11.36374 20830 ft 387 kts 346°
2026-04-25 16:42 44.27033 11.35691 21333 ft 391 kts 347°
2026-04-25 16:42 44.29738 11.35010 21851 ft 394 kts 347°
2026-04-25 16:42 44.32408 11.34347 22368 ft 396 kts 347°
2026-04-25 16:43 44.35129 11.33674 22906 ft 399 kts 347°
2026-04-25 16:43 44.37856 11.33001 23434 ft 401 kts 347°
2026-04-25 16:43 44.40591 11.32326 23951 ft 404 kts 347°
2026-04-25 16:43 44.43399 11.31634 24465 ft 407 kts 347°
2026-04-25 16:44 44.46193 11.30946 24954 ft 410 kts 347°
2026-04-25 16:44 44.48968 11.30261 25425 ft 413 kts 347°
2026-04-25 16:44 44.51844 11.29644 25895 ft 417 kts 350°
2026-04-25 16:44 44.54723 11.29292 26347 ft 421 kts 354°
2026-04-25 16:45 44.56685 11.29207 26644 ft 424 kts 356°
2026-04-25 16:45 44.60620 11.29286 27227 ft 427 kts 358°
2026-04-25 16:45 44.63570 11.29393 27648 ft 429 kts 358°
2026-04-25 16:45 44.66566 11.29505 28057 ft 432 kts 358°
2026-04-25 16:46 44.69575 11.29617 28449 ft 434 kts 358°
2026-04-25 16:46 44.72596 11.29727 28839 ft 436 kts 358°
2026-04-25 16:46 44.75658 11.29836 29228 ft 439 kts 358°
2026-04-25 16:46 44.77661 11.29905 29488 ft 440 kts 358°
2026-04-25 16:47 44.81774 11.30048 29998 ft 443 kts 358°
2026-04-25 16:47 44.84854 11.30154 30390 ft 444 kts 358°
2026-04-25 16:47 44.87929 11.30260 30869 ft 442 kts 358°
2026-04-25 16:47 44.90993 11.30366 31360 ft 440 kts 358°
2026-04-25 16:48 44.94030 11.30470 31820 ft 439 kts 358°
2026-04-25 16:48 44.97078 11.30575 32258 ft 437 kts 358°
2026-04-25 16:48 45.00130 11.30679 32679 ft 436 kts 358°
2026-04-25 16:48 45.03160 11.30783 33090 ft 435 kts 358°
2026-04-25 16:49 45.06163 11.30886 33491 ft 434 kts 358°
2026-04-25 16:49 45.09164 11.30990 33899 ft 433 kts 358°
2026-04-25 16:49 45.12205 11.31094 34303 ft 432 kts 358°
2026-04-25 16:49 45.15038 11.31193 34671 ft 429 kts 357°
2026-04-25 16:50 45.18118 11.31298 34981 ft 430 kts 357°
2026-04-25 16:50 45.21141 11.31399 35309 ft 429 kts 357°
2026-04-25 16:50 45.25067 11.31531 35749 ft 427 kts 357°
2026-04-25 16:50 45.27052 11.31599 35960 ft 426 kts 357°
2026-04-25 16:51 45.30075 11.31704 36248 ft 426 kts 357°
2026-04-25 16:51 45.33010 11.31805 36514 ft 425 kts 357°
2026-04-25 16:51 45.35941 11.31907 36770 ft 424 kts 357°
2026-04-25 16:51 45.37890 11.31974 36927 ft 423 kts 357°
2026-04-25 16:52 45.41830 11.32110 37147 ft 425 kts 357°
2026-04-25 16:52 45.44811 11.32214 37306 ft 426 kts 357°
2026-04-25 16:52 45.47741 11.32313 37479 ft 427 kts 357°
2026-04-25 16:52 45.50733 11.32414 37664 ft 428 kts 357°
2026-04-25 16:53 45.56673 11.32619 37954 ft 429 kts 357°
2026-04-25 16:53 45.59694 11.32724 38046 ft 431 kts 357°
2026-04-25 16:54 45.65643 11.32932 38089 ft 430 kts 357°
2026-04-25 16:54 45.71669 11.33144 38106 ft 430 kts 357°
2026-04-25 16:55 45.77639 11.33354 38087 ft 430 kts 357°
2026-04-25 16:55 45.83604 11.33565 38053 ft 430 kts 356°
2026-04-25 16:56 45.89623 11.33777 37925 ft 430 kts 356°
2026-04-25 16:56 45.92593 11.33882 37821 ft 430 kts 356°
2026-04-25 16:56 45.95592 11.33988 37685 ft 430 kts 356°
2026-04-25 16:56 45.98583 11.34094 37506 ft 430 kts 356°
2026-04-25 16:57 46.01574 11.34200 37363 ft 429 kts 356°
2026-04-25 16:57 46.07535 11.34414 37581 ft 426 kts 356°
2026-04-25 16:57 46.10481 11.34520 37800 ft 422 kts 356°
2026-04-25 16:58 46.13418 11.34625 38019 ft 421 kts 356°
2026-04-25 16:58 46.16333 11.34727 38130 ft 423 kts 356°
2026-04-25 16:58 46.19291 11.34830 38188 ft 426 kts 356°
2026-04-25 16:59 46.25301 11.35040 38164 ft 437 kts 356°
2026-04-25 16:59 46.28366 11.35147 37979 ft 444 kts 357°
2026-04-25 16:59 46.31461 11.35259 37730 ft 446 kts 357°
2026-04-25 16:59 46.34532 11.35372 37430 ft 446 kts 357°
2026-04-25 17:00 46.37639 11.35486 37150 ft 444 kts 357°
2026-04-25 17:00 46.43764 11.35710 37248 ft 440 kts 357°
2026-04-25 17:00 46.46769 11.35820 37427 ft 435 kts 357°
2026-04-25 17:01 46.49791 11.35931 37652 ft 432 kts 356°
2026-04-25 17:01 46.52720 11.36036 37762 ft 433 kts 356°
2026-04-25 17:01 46.55740 11.36141 37644 ft 440 kts 356°
2026-04-25 17:01 46.58815 11.36248 37324 ft 445 kts 357°
2026-04-25 17:02 46.61898 11.36360 37054 ft 445 kts 357°
2026-04-25 17:02 46.64989 11.36473 36848 ft 445 kts 357°
2026-04-25 17:02 46.68098 11.36587 36677 ft 445 kts 357°
2026-04-25 17:03 46.74237 11.36811 36331 ft 445 kts 357°
2026-04-25 17:03 46.77314 11.36924 36207 ft 445 kts 357°
2026-04-25 17:03 46.80441 11.37038 36159 ft 446 kts 357°
2026-04-25 17:04 46.86595 11.37262 36228 ft 446 kts 357°
2026-04-25 17:04 46.92807 11.37489 36296 ft 446 kts 357°
2026-04-25 17:05 46.99012 11.37777 36364 ft 446 kts 359°
2026-04-25 17:05 47.05195 11.38383 36565 ft 444 kts 360°
2026-04-25 17:05 47.08227 11.38700 36856 ft 438 kts 360°
2026-04-25 17:06 47.11232 11.39011 37190 ft 432 kts 360°
2026-04-25 17:06 47.14169 11.39309 37466 ft 428 kts 360°
2026-04-25 17:06 47.17134 11.39608 37694 ft 425 kts 360°
2026-04-25 17:06 47.20070 11.39902 37882 ft 425 kts 360°
2026-04-25 17:07 47.23013 11.40156 38053 ft 425 kts 358°
2026-04-25 17:07 47.25960 11.40232 38139 ft 428 kts 356°
2026-04-25 17:07 47.31997 11.40231 38194 ft 437 kts 356°
2026-04-25 17:08 47.38087 11.40239 38071 ft 439 kts 356°
2026-04-25 17:08 47.44216 11.40194 37911 ft 439 kts 355°
2026-04-25 17:09 47.47253 11.40156 37808 ft 438 kts 355°
2026-04-25 17:09 47.50296 11.40118 37712 ft 438 kts 355°
2026-04-25 17:09 47.56349 11.40049 37721 ft 438 kts 355°
2026-04-25 17:10 47.62425 11.39900 37904 ft 435 kts 353°
2026-04-25 17:10 47.68425 11.39178 38047 ft 435 kts 351°
2026-04-25 17:11 47.74455 11.38341 38118 ft 436 kts 351°
2026-04-25 17:11 47.80463 11.37518 38123 ft 435 kts 351°
2026-04-25 17:12 47.86510 11.36707 38091 ft 435 kts 352°
2026-04-25 17:12 47.92533 11.36190 38087 ft 436 kts 353°
2026-04-25 17:13 47.97556 11.35795 38088 ft 436 kts 353°
2026-04-25 17:13 48.04598 11.35203 38094 ft 436 kts 353°
2026-04-25 17:14 48.10593 11.34307 38101 ft 433 kts 349°
2026-04-25 17:14 48.16556 11.33133 38099 ft 431 kts 349°
2026-04-25 17:15 48.22473 11.31966 38091 ft 431 kts 349°
2026-04-25 17:15 48.28424 11.30839 38084 ft 431 kts 350°
2026-04-25 17:16 48.34347 11.29920 38080 ft 432 kts 351°
2026-04-25 17:16 48.40330 11.28996 38077 ft 431 kts 351°
2026-04-25 17:17 48.46285 11.28059 38071 ft 431 kts 351°
2026-04-25 17:17 48.52190 11.27122 38063 ft 430 kts 351°
2026-04-25 17:18 48.58139 11.26175 38063 ft 430 kts 351°
2026-04-25 17:18 48.64088 11.25226 38072 ft 429 kts 351°
2026-04-25 17:19 48.70031 11.24274 38077 ft 429 kts 351°
2026-04-25 17:19 48.75972 11.23319 38076 ft 429 kts 351°
2026-04-25 17:20 48.81886 11.22370 38075 ft 428 kts 351°
2026-04-25 17:20 48.87827 11.21958 38078 ft 430 kts 356°
2026-04-25 17:21 48.93795 11.21983 38081 ft 430 kts 356°
2026-04-25 17:21 48.99772 11.22028 38085 ft 429 kts 356°
2026-04-25 17:22 49.04763 11.22061 38086 ft 429 kts 356°
2026-04-25 17:22 49.11755 11.22103 38084 ft 429 kts 356°
2026-04-25 17:23 49.17717 11.22137 38080 ft 428 kts 356°
2026-04-25 17:23 49.23655 11.22174 38076 ft 428 kts 356°
2026-04-25 17:24 49.29602 11.22224 38072 ft 427 kts 356°
2026-04-25 17:24 49.35548 11.22274 38070 ft 427 kts 356°
2026-04-25 17:25 49.41454 11.22322 38069 ft 427 kts 356°
2026-04-25 17:25 49.47420 11.22369 38069 ft 426 kts 356°
2026-04-25 17:26 49.53338 11.22418 38071 ft 426 kts 356°
2026-04-25 17:26 49.59277 11.22451 38075 ft 426 kts 356°
2026-04-25 17:27 49.65195 11.22462 38079 ft 425 kts 356°
2026-04-25 17:27 49.70133 11.22465 38082 ft 425 kts 356°
2026-04-25 17:28 49.77006 11.22474 38085 ft 425 kts 356°
2026-04-25 17:28 49.82898 11.22509 38084 ft 424 kts 356°
2026-04-25 17:29 49.88825 11.22548 38082 ft 424 kts 356°
2026-04-25 17:29 49.94716 11.22583 38078 ft 424 kts 356°
2026-04-25 17:30 50.00579 11.22616 38071 ft 424 kts 356°
2026-04-25 17:30 50.06485 11.22650 38062 ft 424 kts 356°
2026-04-25 17:31 50.12397 11.22688 38060 ft 423 kts 356°
2026-04-25 17:31 50.18265 11.22725 38057 ft 422 kts 356°
2026-04-25 17:32 50.24122 11.22756 38052 ft 421 kts 356°
2026-04-25 17:32 50.29966 11.22788 38054 ft 420 kts 356°
2026-04-25 17:33 50.35764 11.22735 38061 ft 419 kts 353°
2026-04-25 17:33 50.41573 11.22023 38072 ft 417 kts 350°
2026-04-25 17:34 50.47317 11.21143 38083 ft 417 kts 350°
2026-04-25 17:34 50.52975 11.20280 38090 ft 417 kts 350°
2026-04-25 17:35 50.58734 11.19404 38093 ft 417 kts 350°
2026-04-25 17:35 50.64532 11.18522 38094 ft 417 kts 350°
2026-04-25 17:36 50.70273 11.17649 38092 ft 417 kts 350°
2026-04-25 17:36 50.76031 11.16770 38090 ft 417 kts 350°
2026-04-25 17:37 50.81784 11.15885 38089 ft 417 kts 350°
2026-04-25 17:37 50.87557 11.14999 38088 ft 416 kts 350°
2026-04-25 17:38 50.92358 11.14261 38088 ft 416 kts 350°
2026-04-25 17:38 50.99033 11.13231 38089 ft 416 kts 350°
2026-04-25 17:39 51.04811 11.12325 38089 ft 415 kts 349°
2026-04-25 17:39 51.10455 11.10838 38089 ft 412 kts 343°
2026-04-25 17:40 51.15939 11.08442 38088 ft 408 kts 338°
2026-04-25 17:40 51.21202 11.05184 38088 ft 406 kts 333°
2026-04-25 17:41 51.26360 11.01515 38086 ft 405 kts 333°
2026-04-25 17:41 51.31501 10.97934 38084 ft 406 kts 335°
2026-04-25 17:42 51.36872 10.95057 38082 ft 408 kts 341°
2026-04-25 17:42 51.42437 10.93054 38080 ft 411 kts 346°
2026-04-25 17:43 51.48099 10.91960 38078 ft 414 kts 351°
2026-04-25 17:43 51.53861 10.91263 38076 ft 414 kts 351°
2026-04-25 17:44 51.59590 10.90595 38073 ft 414 kts 351°
2026-04-25 17:44 51.65322 10.89919 38070 ft 413 kts 351°
2026-04-25 17:45 51.70113 10.89268 38069 ft 412 kts 349°
2026-04-25 17:45 51.76741 10.88102 38069 ft 411 kts 349°
2026-04-25 17:46 51.82420 10.87121 38067 ft 411 kts 349°
2026-04-25 17:46 51.88126 10.86259 38063 ft 412 kts 350°
2026-04-25 17:47 51.93816 10.85476 38060 ft 412 kts 350°
2026-04-25 17:47 51.99530 10.84677 38056 ft 412 kts 350°
2026-04-25 17:48 52.08060 10.83469 38056 ft 412 kts 350°
2026-04-25 17:49 52.13734 10.82664 38053 ft 411 kts 350°
2026-04-25 17:49 52.19436 10.81880 38053 ft 409 kts 350°
2026-04-25 17:50 52.25089 10.81099 38062 ft 407 kts 350°
2026-04-25 17:50 52.30736 10.80312 38066 ft 407 kts 350°
2026-04-25 17:51 52.36392 10.79787 38066 ft 410 kts 354°
2026-04-25 17:51 52.42092 10.80112 38068 ft 413 kts 357°
2026-04-25 17:52 52.47793 10.80701 38067 ft 413 kts 358°
2026-04-25 17:52 52.53537 10.81306 38066 ft 413 kts 358°
2026-04-25 17:53 52.59239 10.81905 38066 ft 413 kts 358°
2026-04-25 17:53 52.64929 10.82502 38066 ft 412 kts 358°
2026-04-25 17:54 52.70665 10.83103 38067 ft 412 kts 358°
2026-04-25 17:54 52.76378 10.83703 38068 ft 412 kts 357°
2026-04-25 17:55 52.82066 10.84302 38070 ft 412 kts 357°
2026-04-25 17:55 52.87775 10.84905 38072 ft 412 kts 357°
2026-04-25 17:56 52.93480 10.85511 38073 ft 412 kts 357°
2026-04-25 17:56 52.99179 10.86117 38075 ft 411 kts 357°
2026-04-25 17:57 53.04859 10.86722 38075 ft 411 kts 357°
2026-04-25 17:57 53.10545 10.87328 38074 ft 411 kts 357°
2026-04-25 17:58 53.16224 10.87936 38072 ft 410 kts 357°
2026-04-25 17:58 53.21896 10.88911 38068 ft 414 kts
2026-04-25 17:59 53.27558 10.90879 38064 ft 419 kts
2026-04-25 17:59 53.33126 10.93833 38061 ft 423 kts 12°
2026-04-25 18:00 53.38650 10.97179 38055 ft 423 kts 12°
2026-04-25 18:00 53.44195 11.00566 38050 ft 423 kts 12°
2026-04-25 18:01 53.49695 11.03929 38045 ft 423 kts 12°
2026-04-25 18:01 53.55195 11.07299 38041 ft 422 kts 12°
2026-04-25 18:02 53.60715 11.10689 38037 ft 422 kts 12°
2026-04-25 18:02 53.66234 11.14088 38034 ft 422 kts 12°
2026-04-25 18:03 53.71728 11.17481 38033 ft 422 kts 12°
2026-04-25 18:03 53.77197 11.20866 38033 ft 422 kts 12°
2026-04-25 18:04 53.83623 11.24859 38028 ft 415 kts 12°
2026-04-25 18:04 53.88034 11.27620 38032 ft 405 kts 11°
2026-04-25 18:05 53.93285 11.30895 38028 ft 398 kts 11°
2026-04-25 18:05 53.98355 11.34077 38029 ft 387 kts 11°
2026-04-25 18:06 54.03405 11.37237 38024 ft 386 kts 11°
2026-04-25 18:06 54.05906 11.38804 37636 ft 391 kts 11°
2026-04-25 18:06 54.08465 11.40407 37023 ft 396 kts 11°
2026-04-25 18:06 54.11087 11.42055 36350 ft 401 kts 11°
2026-04-25 18:07 54.13575 11.43624 35683 ft 405 kts 11°
2026-04-25 18:07 54.16201 11.45284 34982 ft 408 kts 11°
2026-04-25 18:07 54.18847 11.46960 34278 ft 411 kts 11°
2026-04-25 18:07 54.21433 11.48601 33630 ft 413 kts 11°
2026-04-25 18:08 54.23939 11.50195 32771 ft 415 kts 10°
2026-04-25 18:08 54.26630 11.51909 31952 ft 413 kts 10°
2026-04-25 18:08 54.29309 11.53627 31127 ft 403 kts 10°
2026-04-25 18:08 54.31882 11.55279 30311 ft 395 kts
2026-04-25 18:09 54.34458 11.56918 29423 ft 395 kts
2026-04-25 18:09 54.37020 11.58546 28534 ft 394 kts
2026-04-25 18:09 54.39581 11.60182 27639 ft 392 kts
2026-04-25 18:09 54.41287 11.61274 27025 ft 391 kts
2026-04-25 18:10 54.44649 11.63528 25688 ft 396 kts 14°
2026-04-25 18:10 54.47022 11.65960 24805 ft 408 kts 25°
2026-04-25 18:10 54.49183 11.69201 24202 ft 414 kts 34°
2026-04-25 18:10 54.51139 11.72821 23680 ft 411 kts 37°
2026-04-25 18:11 54.53008 11.76432 23200 ft 407 kts 37°
2026-04-25 18:11 54.54889 11.80077 22722 ft 402 kts 37°
2026-04-25 18:11 54.56714 11.83590 22261 ft 397 kts 37°
2026-04-25 18:11 54.58549 11.87089 21829 ft 391 kts 34°
2026-04-25 18:12 54.60608 11.89941 21399 ft 365 kts 18°
2026-04-25 18:12 54.62791 11.91932 20976 ft 358 kts 14°
2026-04-25 18:12 54.65037 11.93834 20521 ft 356 kts 14°
2026-04-25 18:12 54.67233 11.95735 20075 ft 354 kts 15°
2026-04-25 18:13 54.69412 11.97687 19742 ft 348 kts 15°
2026-04-25 18:13 54.71505 11.99607 19447 ft 341 kts 15°
2026-04-25 18:13 54.73581 12.01534 19133 ft 334 kts 15°
2026-04-25 18:14 54.77562 12.05267 18402 ft 323 kts 14°
2026-04-25 18:14 54.79522 12.07112 17962 ft 320 kts 14°
2026-04-25 18:14 54.81469 12.08949 17513 ft 318 kts 14°
2026-04-25 18:14 54.83395 12.10772 17117 ft 315 kts 14°
2026-04-25 18:15 54.85313 12.12587 16731 ft 314 kts 14°
2026-04-25 18:15 54.87242 12.14416 16366 ft 313 kts 15°
2026-04-25 18:15 54.89137 12.16220 16022 ft 313 kts 16°
2026-04-25 18:15 54.90979 12.18395 15674 ft 323 kts 24°
2026-04-25 18:16 54.92704 12.20822 15157 ft 325 kts 26°
2026-04-25 18:16 54.94437 12.23315 14560 ft 324 kts 26°
2026-04-25 18:16 54.97832 12.28174 13284 ft 307 kts 26°
2026-04-25 18:17 54.99448 12.30465 12763 ft 301 kts 26°
2026-04-25 18:17 55.01083 12.32758 12265 ft 301 kts 27°
2026-04-25 18:17 55.02713 12.35042 11870 ft 296 kts 27°
2026-04-25 18:17 55.04295 12.37257 11376 ft 296 kts 27°
2026-04-25 18:18 55.05910 12.39511 10910 ft 294 kts 27°
2026-04-25 18:18 55.07509 12.41602 10472 ft 289 kts 25°
2026-04-25 18:18 55.09152 12.43628 9951 ft 289 kts 25°
2026-04-25 18:18 55.10798 12.45601 9649 ft 282 kts 25°
2026-04-25 18:19 55.12394 12.47493 9430 ft 273 kts 25°
2026-04-25 18:19 55.13945 12.49313 9094 ft 270 kts 25°
2026-04-25 18:19 55.15515 12.51139 8712 ft 268 kts 25°
2026-04-25 18:19 55.17067 12.52914 8349 ft 266 kts 25°
2026-04-25 18:20 55.18597 12.54635 7993 ft 264 kts 25°
2026-04-25 18:20 55.20135 12.56346 7638 ft 262 kts 25°
2026-04-25 18:20 55.21659 12.58037 7275 ft 260 kts 25°
2026-04-25 18:20 55.23190 12.59727 6912 ft 258 kts 25°
2026-04-25 18:21 55.24708 12.61397 6552 ft 255 kts 25°
2026-04-25 18:21 55.26221 12.62922 6195 ft 251 kts 21°
2026-04-25 18:21 55.27764 12.64294 5851 ft 249 kts 20°
2026-04-25 18:21 55.29328 12.65653 5484 ft 247 kts 20°
2026-04-25 18:22 55.30839 12.66963 5118 ft 245 kts 21°
2026-04-25 18:22 55.31869 12.67852 4857 ft 243 kts 20°
2026-04-25 18:22 55.33883 12.69566 4312 ft 241 kts 21°
2026-04-25 18:22 55.35405 12.70844 3906 ft 239 kts 20°
2026-04-25 18:23 55.36891 12.72091 3494 ft 238 kts 20°
2026-04-25 18:23 55.38391 12.73347 3087 ft 237 kts 20°
2026-04-25 18:23 55.39863 12.74581 2697 ft 235 kts 20°
2026-04-25 18:23 55.41336 12.75801 2296 ft 234 kts 20°
2026-04-25 18:24 55.42801 12.77004 2022 ft 229 kts 20°
2026-04-25 18:24 55.44236 12.78193 2012 ft 231 kts 21°
2026-04-25 18:24 55.45705 12.79410 2010 ft 232 kts 20°
2026-04-25 18:24 55.47123 12.80588 2000 ft 218 kts 20°
2026-04-25 18:25 55.48434 12.81709 1994 ft 201 kts 20°
2026-04-25 18:25 55.49652 12.82785 1999 ft 192 kts 20°
2026-04-25 18:25 55.50807 12.83830 1991 ft 180 kts 20°
2026-04-25 18:25 55.52201 12.85080 2038 ft 151 kts 15°
2026-04-25 18:26 55.52843 12.85228 2009 ft 135 kts 348°
2026-04-25 18:26 55.53708 12.84682 2008 ft 130 kts 337°
2026-04-25 18:26 55.54546 12.83957 2012 ft 133 kts 327°
2026-04-25 18:26 55.55213 12.82823 2017 ft 134 kts 315°
2026-04-25 18:27 55.55803 12.81524 1994 ft 136 kts 314°
2026-04-25 18:27 55.56379 12.80174 1867 ft 136 kts 311°
2026-04-25 18:27 55.56912 12.78810 1664 ft 134 kts 309°
2026-04-25 18:27 55.57439 12.77392 1479 ft 139 kts 309°
2026-04-25 18:28 55.57956 12.75976 1322 ft 132 kts 310°
2026-04-25 18:28 55.58427 12.74678 1116 ft 118 kts 312°
2026-04-25 18:28 55.58873 12.73464 942 ft 117 kts 313°
2026-04-25 18:29 55.59760 12.71070 637 ft 116 kts 313°
2026-04-25 18:29 55.60201 12.69877 487 ft 116 kts 313°
2026-04-25 18:30 55.61505 12.66364 12 ft 111 kts 310°
2026-04-25 18:30 55.61846 12.65452 15 ft 63 kts 302°
2026-04-25 18:30 55.62047 12.64912 15 ft 47 kts 304°
2026-04-25 18:30 55.62216 12.64449 15 ft 41 kts 304°
2026-04-25 18:31 55.62365 12.64048 15 ft 36 kts 306°
2026-04-25 18:31 55.62508 12.63781 15 ft 24 kts 345°
2026-04-25 18:31 55.62614 12.63784 15 ft 2 kts 19°
2026-04-25 18:31 55.62629 12.63795 15 ft 2 kts 25°
2026-04-25 18:32 55.62634 12.63800 15 ft 0 kts 26°
2026-04-25 18:32 55.62635 12.63800 15 ft 0 kts 26°
2026-04-25 18:32 55.62646 12.63823 15 ft 3 kts 67°
2026-04-25 18:32 55.62633 12.63901 15 ft 11 kts 123°
2026-04-25 18:33 55.62577 12.64051 15 ft 17 kts 123°
2026-04-25 18:33 55.62509 12.64238 15 ft 18 kts 124°
2026-04-25 18:33 55.62430 12.64421 15 ft 18 kts 127°
2026-04-25 18:33 55.62357 12.64608 16 ft 18 kts 122°
2026-04-25 18:34 55.62286 12.64808 15 ft 19 kts 122°
2026-04-25 18:34 55.62209 12.65006 16 ft 19 kts 123°
2026-04-25 18:34 55.62218 12.65186 16 ft 17 kts 19°
2026-04-25 18:34 55.62330 12.65195 18 ft 15 kts 357°
2026-04-25 18:35 55.62432 12.65190 18 ft 14 kts 359°
2026-04-25 18:35 55.62538 12.65184 18 ft 15 kts 358°
2026-04-25 18:35 55.62637 12.65200 18 ft 12 kts 31°
2026-04-25 18:35 55.62667 12.65302 18 ft 8 kts 24°
2026-04-25 18:36 55.62709 12.65323 18 ft 3 kts 14°
2026-04-25 18:36 55.62716 12.65325 18 ft 0 kts 14°